Location: Oshawa
(43.9000°N, 78.8670°W)
Time: 01:25:33
(UTC-04:00)

S-56A Canister/Altair - All Passes

Search period start: 31 March 2015 00:00
Search period end: 10 April 2015 00:00
Orbit: 634 x 2501 km, 38.9° (Epoch: 30 March)

Date Brightness Start Highest point End Pass type
(mag) Time Alt. Az. Time Alt. Az. Time Alt. Az.
31 Mar - 01:48:02 10° W 01:59:30 32° SW 02:08:03 10° SSE visible
31 Mar - 16:55:13 10° S 17:04:26 25° SE 17:15:36 10° E daylight
31 Mar - 18:56:04 10° SW 19:09:09 54° SSE 19:23:29 10° E daylight
31 Mar - 21:00:40 10° WSW 21:15:29 72° S 21:29:25 10° E visible
31 Mar - 23:07:03 10° W 23:21:58 64° SSW 23:34:04 10° ESE visible
01 Apr - 01:14:30 10° W 01:26:54 36° SW 01:36:17 10° SSE visible
01 Apr - 16:23:40 10° S 16:31:47 22° SE 16:41:52 10° E daylight
01 Apr - 18:23:41 10° SW 18:36:08 50° SSE 18:50:25 10° E daylight
01 Apr - 20:27:49 10° WSW 20:42:17 71° S 20:56:38 10° E visible
01 Apr - 22:33:53 10° W 22:48:55 67° SSW 23:01:38 10° ESE visible
02 Apr - 00:41:04 10° W 00:54:13 40° SW 01:04:23 10° SSE visible
02 Apr - 02:52:40 10° WSW 02:57:28 12° SW 03:00:54 10° SW visible
02 Apr - 15:52:24 10° SSE 15:59:12 18° SE 16:07:52 10° E daylight
02 Apr - 17:51:24 10° SW 18:03:12 47° SSE 18:17:14 10° E daylight
02 Apr - 19:55:04 10° WSW 20:09:06 70° S 20:23:47 10° E visible
02 Apr - 22:00:49 10° W 22:15:48 69° SSW 22:29:07 10° ESE visible
03 Apr - 00:07:42 10° W 00:21:27 44° SSW 00:32:21 10° SSE visible
03 Apr - 02:17:45 10° W 02:25:04 16° SW 02:30:37 10° SSW visible
03 Apr - 15:21:35 10° SSE 15:26:41 15° SE 15:33:27 10° E daylight
03 Apr - 17:19:15 10° SSW 17:30:19 43° SE 17:43:59 10° E daylight
03 Apr - 19:22:25 10° WSW 19:35:56 68° SSE 19:50:49 10° E daylight
03 Apr - 21:27:50 10° W 21:42:38 71° S 21:56:30 10° ESE visible
03 Apr - 23:34:25 10° W 23:48:35 48° SSW 00:00:12 10° SE visible
04 Apr - 01:43:31 10° W 01:52:34 19° SW 01:59:38 10° SSW visible
04 Apr - 14:51:49 10° SE 14:54:15 11° SE 14:58:00 10° ESE daylight
04 Apr - 16:47:14 10° SSW 16:57:32 39° SE 17:10:37 10° E daylight
04 Apr - 18:49:52 10° WSW 19:02:49 66° SSE 19:17:46 10° E daylight
04 Apr - 20:54:55 10° W 21:09:27 72° S 21:23:46 10° ESE visible
04 Apr - 23:01:13 10° W 23:15:39 52° SSW 23:27:57 10° SE visible
05 Apr - 01:09:36 10° W 01:20:00 23° SW 01:28:17 10° S visible
05 Apr - 16:15:20 10° SSW 16:24:50 34° SE 16:37:11 10° E daylight
05 Apr - 18:17:24 10° WSW 18:29:45 63° SSE 18:44:40 10° E daylight
05 Apr - 20:22:07 10° W 20:36:15 72° S 20:50:57 10° ESE visible
05 Apr - 22:28:07 10° W 22:42:38 56° SSW 22:55:35 10° SE visible
06 Apr - 00:35:54 10° W 00:47:22 27° SW 00:56:42 10° S visible
06 Apr - 15:43:34 10° SSW 15:52:13 30° SE 16:03:38 10° E daylight
06 Apr - 17:45:04 10° SW 17:56:45 60° SSE 18:11:27 10° E daylight
06 Apr - 19:49:23 10° W 20:03:03 73° S 20:18:01 10° E visible
06 Apr - 21:55:06 10° W 22:09:34 59° SSW 22:23:05 10° SE visible
07 Apr - 00:02:22 10° W 00:14:38 30° SW 00:24:54 10° S visible
07 Apr - 15:11:59 10° S 15:19:42 26° SE 15:29:58 10° E daylight
07 Apr - 17:12:49 10° SW 17:23:50 56° SSE 17:38:11 10° E daylight
07 Apr - 19:16:46 10° WSW 19:29:53 73° S 19:45:01 10° E daylight
07 Apr - 21:22:10 10° W 21:36:27 62° SSW 21:50:28 10° SE visible
07 Apr - 23:29:00 10° W 23:41:50 34° SW 23:52:57 10° SSE visible
08 Apr - 14:40:34 10° S 14:47:16 22° SE 14:56:12 10° E daylight
08 Apr - 16:40:41 10° SW 16:50:59 52° SSE 17:04:52 10° E daylight
08 Apr - 18:44:14 10° WSW 18:56:45 72° S 19:11:54 10° E daylight
08 Apr - 20:49:20 10° W 21:03:19 64° SSW 21:17:44 10° ESE visible
08 Apr - 22:55:45 10° W 23:08:57 38° SW 23:20:50 10° SSE visible
09 Apr - 01:08:00 10° WSW 01:12:55 12° SW 01:16:19 10° SW visible
09 Apr - 14:09:26 10° SSE 14:14:54 18° SE 14:22:13 10° E daylight
09 Apr - 16:08:38 10° SW 16:18:15 48° SSE 16:31:31 10° E daylight
09 Apr - 18:11:47 10° WSW 18:23:41 71° S 18:38:44 10° E daylight
09 Apr - 20:16:35 10° W 20:30:10 66° SSW 20:44:56 10° ESE visible
09 Apr - 22:22:38 10° W 22:36:01 41° SW 22:48:35 10° SSE visible
